Погода в Батагай-Алыте

Россия / Республика Саха (Якутия)     67°47′56″N   130°23′51″E
темп.,
°C
ветер,
м/с
пор.,
м/с
влажн.,
%
обл.,
%
осадки,
мм/ч
давл.,
гПа
погр.,
м
27 февраля, сб
сб2700:00−32юв119799 0.0 103219
03:00−32вюв119799 0.0 103119
06:00−36ю0110058 0.0 103119
09:00−35ююз009930 0.0 103119
12:00−31юв11910 0.0 103055
15:00−31в11940 0.0 102919
18:00−36з001000 0.0 102919
21:00−36зсз001000 0.0 102819
28 февраля, вс
вс2800:00−37сз001002 0.0 102719
03:00−37з001002 0.0 102619
06:00−37юз0010012 0.0 102519
09:00−35ююз119650 0.0 102519
12:00−31юв119197 0.0 102439
15:00−30юв119386 0.0 102219
18:00−36вюв001006 0.0 102419
21:00−36зсз001003 0.0 102419
1 марта, пн
пн100:00−36зюз001000 0.0 102419
03:00−36ююв011002 0.0 102419
06:00−33вюв009591 0.0 102419
09:00−33вюв019695 0.0 102419
12:00−30вюв1193100 0.0 1023119
15:00−30в119298 0.0 1023136
18:00−34в1110098 0.0 102519
21:00−33всв119998 0.0 102519
2 марта, вт
вт200:00−33в119995 0.1 102519
03:00−33в119898 0.1 102519
06:00−32всв1198100 0.1 102627
09:00−32вюв1197100 0.1 102668
12:00−30вюв219399 0.1 1025171
15:00−30вюв119599 0.1 1026119
18:00−36юв0010070 0.0 102719
21:00−37сз1110035 0.0 102819
3 марта, ср
ср300:00−38зсз011000 0.0 102719
03:00−38сз111006 0.0 102719
06:00−36сз119274 0.0 102619
09:00−32ссв118787 0.0 102530
12:00−30св1187100 0.0 1023176
15:00−29св1388100 0.0 1021344
18:00−32ссв1297100 0.0 102122
21:00−34св1198100 0.1 102021